PulseSat

PulseSat

GSAT0211 (GALILEO 14)

Last updated on Feb. 17, 2019, 3:05 a.m. UTC

1 41549U 16030A   19046.45281137  .00000004  00000-0  00000-0 0  9998
2 41549  56.6823 295.3122 0003047 334.4883  25.5648  1.70474249 17002
UTC
Height (km)
Latitude
Longitude
Inclination
Orbital Period

Next 30 passes for location: Hong Kong

Rise time Rise Azimuth (degrees) Set time Set Azimuth (degrees) Duration Max altitude (degrees)

No matching passes for this satellites

PulseSat

PulseSat is the new satellites software and hardware trackering solution by Pulsely.
Satellite Two Line Element Set source: US Air Force Space Command

Download PulseSat for iOS
© 2017 Pulsely Limited